When you browse on this site, cookies collect data to enhance your experience and personalize the content and advertising you see.
Visit our Privacy Policy to learn more. By continuing to use the site, you agree to this use of cookies and data.
  • In Austria
  • List of Countries
  • For 7 days
  • Water Temperature
  • Weather Map
  • News
  • Weather Widgets
  • user-avatar
    Login

    Hourly Weather Puerto Tejada

    Today, 22 September, Sunday

    Time Temperature Precipitation Wind Pressure Humidity
    00:00 +21°C° 0.1 mm 1 mps 679 mmHg 90%
    01:00 +21°C° 0 mm 1 mps 679 mmHg 89%
    02:00 +21°C° 0.2 mm 1 mps 679 mmHg 90%
    03:00 +19°C° 0.2 mm 0 mps 678 mmHg 90%
    04:00 +19°C° 0.2 mm 0 mps 678 mmHg 90%
    05:00 +19°C° 0.1 mm 0 mps 679 mmHg 88%
    06:00 +19°C° 0.1 mm 0 mps 679 mmHg 87%
    07:00 +20°C° 0.1 mm 0 mps 679 mmHg 86%
    08:00 +24°C° 0 mm 1 mps 680 mmHg 80%
    09:00 +26°C° 0 mm 1 mps 680 mmHg 74%
    10:00 +28°C° 0 mm 1 mps 681 mmHg 68%
    11:00 +29°C° 0.2 mm 1 mps 680 mmHg 64%
    12:00 +30°C° 0.2 mm 1 mps 680 mmHg 60%
    13:00 +31°C° 0.2 mm 1 mps 680 mmHg 56%
    14:00 +30°C° 0.8 mm 1 mps 679 mmHg 61%
    15:00 +29°C° 0.8 mm 1 mps 678 mmHg 66%
    16:00 +28°C° 0.8 mm 1 mps 678 mmHg 70%
    17:00 +27°C° 1.8 mm 1 mps 678 mmHg 76%
    18:00 +25°C° 1.8 mm 1 mps 678 mmHg 81%
    19:00 +24°C° 1.8 mm 1 mps 679 mmHg 87%
    20:00 +23°C° 1.6 mm 1 mps 679 mmHg 88%
    21:00 +23°C° 1.6 mm 1 mps 679 mmHg 89%
    22:00 +22°C° 1.6 mm 1 mps 679 mmHg 90%
    23:00 +22°C° 0.7 mm 1 mps 679 mmHg 91%

    Tomorrow, 23 September, Monday

    Time Temperature Precipitation Wind Pressure Humidity
    00:00 +21°C° 0.7 mm 1 mps 679 mmHg 91%
    01:00 +19°C° 0.7 mm 0 mps 679 mmHg 91%
    02:00 +19°C° 0.3 mm 0 mps 679 mmHg 91%
    03:00 +19°C° 0.3 mm 0 mps 679 mmHg 91%
    04:00 +19°C° 0.3 mm 0 mps 679 mmHg 91%
    05:00 +19°C° 0 mm 0 mps 679 mmHg 90%
    06:00 +19°C° 0 mm 0 mps 680 mmHg 88%
    07:00 +20°C° 0 mm 0 mps 680 mmHg 87%
    08:00 +22°C° 0.1 mm 0 mps 680 mmHg 81%
    09:00 +26°C° 0.1 mm 1 mps 681 mmHg 74%
    10:00 +28°C° 0.1 mm 1 mps 681 mmHg 67%
    11:00 +29°C° 0.3 mm 1 mps 681 mmHg 63%
    12:00 +30°C° 0.3 mm 1 mps 680 mmHg 59%
    13:00 +31°C° 0.3 mm 1 mps 680 mmHg 55%
    14:00 +30°C° 0.8 mm 1 mps 679 mmHg 61%
    15:00 +28°C° 0.8 mm 1 mps 678 mmHg 68%
    16:00 +27°C° 0.8 mm 1 mps 678 mmHg 74%
    17:00 +26°C° 1.2 mm 1 mps 678 mmHg 79%
    18:00 +24°C° 1.2 mm 1 mps 678 mmHg 84%
    19:00 +23°C° 1.2 mm 1 mps 678 mmHg 89%
    20:00 +23°C° 0.6 mm 1 mps 679 mmHg 89%
    21:00 +22°C° 0.6 mm 1 mps 679 mmHg 88%
    22:00 +22°C° 0.6 mm 1 mps 680 mmHg 88%
    23:00 +22°C° 0.2 mm 1 mps 679 mmHg 87%

    Day after tomorrow, 24 September, Tuesday

    Time Temperature Precipitation Wind Pressure Humidity
    00:00 +21°C° 0.2 mm 1 mps 679 mmHg 87%
    01:00 +21°C° 0.2 mm 1 mps 679 mmHg 86%
    02:00 +21°C° 0 mm 1 mps 679 mmHg 85%
    03:00 +21°C° 0 mm 1 mps 678 mmHg 84%
    04:00 +20°C° 0 mm 1 mps 678 mmHg 84%
    05:00 +19°C° 0 mm 0 mps 679 mmHg 83%
    06:00 +19°C° 0 mm 0 mps 679 mmHg 82%
    07:00 +20°C° 0 mm 0 mps 680 mmHg 81%
    08:00 +22°C° 0 mm 0 mps 680 mmHg 76%
    09:00 +26°C° 0 mm 1 mps 681 mmHg 71%
    10:00 +27°C° 0 mm 1 mps 681 mmHg 66%
    11:00 +29°C° 0.2 mm 1 mps 681 mmHg 61%
    12:00 +30°C° 0.2 mm 1 mps 680 mmHg 56%
    13:00 +31°C° 0.2 mm 1 mps 680 mmHg 52%
    14:00 +30°C° 0.6 mm 1 mps 679 mmHg 56%
    15:00 +30°C° 0.6 mm 1 mps 679 mmHg 60%
    16:00 +29°C° 0.6 mm 1 mps 678 mmHg 64%
    17:00 +27°C° 1.5 mm 1 mps 678 mmHg 71%
    18:00 +26°C° 1.5 mm 1 mps 678 mmHg 79%
    19:00 +24°C° 1.5 mm 1 mps 678 mmHg 87%
    20:00 +23°C° 1.9 mm 1 mps 679 mmHg 89%
    21:00 +23°C° 1.9 mm 1 mps 679 mmHg 90%
    22:00 +23°C° 1.9 mm 1 mps 680 mmHg 92%
    23:00 +22°C° 0.7 mm 1 mps 680 mmHg 92%

    25 September, Wednesday

    Time Temperature Precipitation Wind Pressure Humidity
    00:00 +22°C° 0.7 mm 1 mps 679 mmHg 93%
    01:00 +19°C° 0.7 mm 0 mps 679 mmHg 93%
    02:00 +21°C° 0.6 mm 1 mps 679 mmHg 93%
    03:00 +21°C° 0.6 mm 1 mps 679 mmHg 92%
    04:00 +21°C° 0.6 mm 1 mps 678 mmHg 92%
    05:00 +19°C° 0.3 mm 0 mps 679 mmHg 90%
    06:00 +20°C° 0.3 mm 0 mps 680 mmHg 89%
    07:00 +20°C° 0.3 mm 0 mps 680 mmHg 87%
    08:00 +22°C° 0.2 mm 0 mps 681 mmHg 83%
    09:00 +23°C° 0.2 mm 0 mps 681 mmHg 79%
    10:00 +26°C° 0.2 mm 1 mps 682 mmHg 75%
    11:00 +24°C° 0.9 mm 0 mps 681 mmHg 77%
    12:00 +24°C° 0.9 mm 0 mps 680 mmHg 79%
    13:00 +24°C° 0.9 mm 0 mps 680 mmHg 80%
    14:00 +23°C° 0.9 mm 0 mps 679 mmHg 83%
    15:00 +22°C° 0.9 mm 0 mps 678 mmHg 86%
    16:00 +24°C° 0.9 mm 1 mps 678 mmHg 89%
    17:00 +21°C° 0.2 mm 0 mps 678 mmHg 90%
    18:00 +21°C° 0.2 mm 0 mps 678 mmHg 91%
    19:00 +20°C° 0.2 mm 0 mps 678 mmHg 92%
    20:00 +20°C° 0 mm 0 mps 679 mmHg 91%
    21:00 +20°C° 0 mm 0 mps 679 mmHg 91%
    22:00 +20°C° 0 mm 0 mps 680 mmHg 90%
    23:00 +20°C° 0 mm 0 mps 679 mmHg 91%

    26 September, Thursday

    Time Temperature Precipitation Wind Pressure Humidity
    00:00 +19°C° 0 mm 0 mps 679 mmHg 91%
    01:00 +19°C° 0 mm 0 mps 679 mmHg 91%
    02:00 +19°C° 0 mm 0 mps 679 mmHg 91%
    03:00 +19°C° 0 mm 0 mps 678 mmHg 92%
    04:00 +19°C° 0 mm 0 mps 678 mmHg 92%
    05:00 +19°C° 0 mm 0 mps 679 mmHg 91%
    06:00 +20°C° 0 mm 0 mps 679 mmHg 91%
    07:00 +20°C° 0 mm 0 mps 680 mmHg 90%
    08:00 +21°C° 0 mm 0 mps 680 mmHg 84%
    09:00 +25°C° 0 mm 1 mps 680 mmHg 77%
    10:00 +26°C° 0 mm 1 mps 681 mmHg 71%
    11:00 +28°C° 0.2 mm 1 mps 680 mmHg 66%
    12:00 +29°C° 0.2 mm 1 mps 680 mmHg 61%
    13:00 +31°C° 0.2 mm 1 mps 679 mmHg 55%
    14:00 +30°C° 0.4 mm 1 mps 679 mmHg 58%
    15:00 +30°C° 0.4 mm 1 mps 678 mmHg 61%
    16:00 +29°C° 0.4 mm 1 mps 678 mmHg 63%
    17:00 +27°C° 1.3 mm 1 mps 678 mmHg 71%
    18:00 +25°C° 1.3 mm 1 mps 678 mmHg 79%
    19:00 +23°C° 1.3 mm 1 mps 678 mmHg 87%
    20:00 +23°C° 0.5 mm 1 mps 678 mmHg 87%
    21:00 +22°C° 0.5 mm 1 mps 679 mmHg 87%
    22:00 +22°C° 0.5 mm 1 mps 679 mmHg 87%
    23:00 +21°C° 0 mm 1 mps 679 mmHg 86%

    27 September, Friday

    Time Temperature Precipitation Wind Pressure Humidity
    00:00 +21°C° 0 mm 1 mps 679 mmHg 86%
    01:00 +21°C° 0 mm 1 mps 678 mmHg 85%
    02:00 +21°C° 0 mm 1 mps 678 mmHg 85%
    03:00 +21°C° 0 mm 1 mps 678 mmHg 85%
    04:00 +20°C° 0 mm 1 mps 678 mmHg 84%
    05:00 +19°C° 0 mm 0 mps 679 mmHg 83%
    06:00 +19°C° 0 mm 0 mps 679 mmHg 82%
    07:00 +20°C° 0 mm 0 mps 680 mmHg 81%
    08:00 +22°C° 0 mm 0 mps 680 mmHg 76%
    09:00 +26°C° 0 mm 1 mps 680 mmHg 70%
    10:00 +28°C° 0 mm 1 mps 681 mmHg 65%
    11:00 +29°C° 0.2 mm 1 mps 680 mmHg 61%
    12:00 +30°C° 0.2 mm 1 mps 680 mmHg 57%
    13:00 +31°C° 0.2 mm 1 mps 679 mmHg 53%
    14:00 +31°C° 0.6 mm 1 mps 679 mmHg 56%
    15:00 +30°C° 0.6 mm 1 mps 678 mmHg 60%
    16:00 +29°C° 0.6 mm 1 mps 678 mmHg 63%
    17:00 +27°C° 1.7 mm 1 mps 678 mmHg 71%
    18:00 +25°C° 1.7 mm 1 mps 678 mmHg 79%
    19:00 +23°C° 1.7 mm 1 mps 678 mmHg 87%
    20:00 +23°C° 1.4 mm 1 mps 679 mmHg 88%
    21:00 +23°C° 1.4 mm 1 mps 679 mmHg 89%
    22:00 +22°C° 1.4 mm 1 mps 679 mmHg 89%
    23:00 +22°C° 0.5 mm 1 mps 679 mmHg 90%
    Show more